HULIANWANG DIGUI 6C

Last updated on Wed Aug 13 2025 00:02:08 GMT+0000 (Coordinated Universal Time)

1 65045U 25162C 25224.23671449 .00000001 00000+0 95091-4 0 9995 2 65045 49.9987 322.4557 0007211 312.0878 47.9413 14.04750455 1820
UTC large
Height (km)
Speed (km/s)
/
Latitude / Longitude
Inclination (degrees)
Orbital Period (minutes)
Azimuth
Elevation
Range (km)
Doppler Factor

Next 0 passes for location: London (51.5072 / 0.1276)

Sorry there are no passes over London.